Home > Products > Valid Products > MTR

000
SAUS46 KPDT 111001 COR
MTRMEH
METAR KMEH 110956Z AUTO 00000KT 10SM BKN110 01/M02 A3029 RMK AO2
SLP271 T00061022





000
SAUS46 KPDT 110954
MTRMEH
METAR KMEH 110956Z AUTO 00000KT 10SM BKN110 01/M02 A3029 RMK AO2
SLP271 T00061022





000
SAUS46 KPDT 110901 COR
MTRMEH
METAR KMEH 110856Z AUTO 00000KT 10SM BKN110 01/M02 A3030 RMK AO2
SLP273 T00111017 58002





000
SAUS46 KPDT 110854
MTRMEH
METAR KMEH 110856Z AUTO 00000KT 10SM BKN110 01/M02 A3030 RMK AO2
SLP273 T00111017 58002





000
SAUS46 KPDT 110854
MTRMEH
METAR KMEH 110856Z AUTO 00000KT 10SM BKN110 01/M02 A3030 RMK AO2
SLP273 T00111017 58002





000
SAUS46 KPDT 110801 COR
MTRMEH
METAR KMEH 110756Z AUTO 00000KT 10SM CLR 02/M02 A3031 RMK AO2 SLP276
T00171017 401060000





000
SAUS46 KPDT 110754
MTRMEH
METAR KMEH 110756Z AUTO 00000KT 10SM CLR 02/M02 A3031 RMK AO2 SLP276
T00171017 401060000





000
SAUS46 KPDT 110701 COR
MTRMEH
METAR KMEH 110656Z AUTO 00000KT 10SM CLR 02/M02 A3032 RMK AO2 SLP281
T00171017





000
SAUS46 KPDT 110701 COR
MTRMEH
METAR KMEH 110656Z AUTO 00000KT 10SM CLR 02/M02 A3032 RMK AO2 SLP281
T00171017





000
SAUS46 KPDT 110654
MTRMEH
METAR KMEH 110656Z AUTO 00000KT 10SM CLR 02/M02 A3032 RMK AO2 SLP281
T00171017





000
SAUS46 KPDT 110654
MTRMEH
METAR KMEH 110656Z AUTO 00000KT 10SM CLR 02/M02 A3032 RMK AO2 SLP281
T00171017





000
SAUS46 KPDT 110601 COR
MTRMEH
METAR KMEH 110556Z AUTO 00000KT 10SM CLR 01/M02 A3031 RMK AO2 SLP280
T00111022 10072 20011 55003





000
SAUS46 KPDT 110601 COR
MTRMEH
METAR KMEH 110556Z AUTO 00000KT 10SM CLR 01/M02 A3031 RMK AO2 SLP280
T00111022 10072 20011 55003





000
SAUS46 KPDT 110554
MTRMEH
METAR KMEH 110556Z AUTO 00000KT 10SM CLR 01/M02 A3031 RMK AO2 SLP280
T00111022 10072 20011 55003





000
SAUS46 KPDT 110554
MTRMEH
METAR KMEH 110556Z AUTO 00000KT 10SM CLR 01/M02 A3031 RMK AO2 SLP280
T00111022 10072 20011 55003





000
SAUS46 KPDT 110501 COR
MTRMEH
METAR KMEH 110456Z AUTO 00000KT 10SM CLR 02/M02 A3031 RMK AO2 SLP282
T00221017





000
SAUS46 KPDT 110501 COR
MTRMEH
METAR KMEH 110456Z AUTO 00000KT 10SM CLR 02/M02 A3031 RMK AO2 SLP282
T00221017





000
SAUS46 KPDT 110459
MTRMEH
METAR KMEH 110456Z AUTO 00000KT 10SM CLR 02/M02 A3031 RMK AO2 SLP282

NO CARRIER

RING

CONNECT 1200

NO CARRIER

RING

CONNECT 1200

LAXRR79L2 ALL
TTAA00 K9L2 110500
.A EAFB1 0211 DH0500/PPH 0.00





000
SAUS46 KPDT 110459
MTRMEH
METAR KMEH 110456Z AUTO 00000KT 10SM CLR 02/M02 A3031 RMK AO2 SLP282

NO CARRIER

RING

CONNECT 1200

NO CARRIER

RING

CONNECT 1200

LAXRR79L2 ALL
TTAA00 K9L2 110500
.A EAFB1 0211 DH0500/PPH 0.00





000
SAUS46 KPDT 110401 COR
MTRMEH
METAR KMEH 110356Z AUTO 00000KT 10SM CLR 02/M02 A3031 RMK AO2 SLP284
T00221017





000
SAUS46 KPDT 110401 COR
MTRMEH
METAR KMEH 110356Z AUTO 00000KT 10SM CLR 02/M02 A3031 RMK AO2 SLP284
T00221017





000
SAUS46 KPDT 110354
MTRMEH
METAR KMEH 110356Z AUTO 00000KT 10SM CLR 02/M02 A3031 RMK AO2 SLP284
T00221017





000
SAUS46 KPDT 110301 COR
MTRMEH
METAR KMEH 110256Z AUTO 00000KT 10SM SCT065 03/M02 A3032 RMK AO2
SLP290 T00281017 50006





000
SAUS46 KPDT 110301 COR
MTRMEH
METAR KMEH 110256Z AUTO 00000KT 10SM SCT065 03/M02 A3032 RMK AO2
SLP290 T00281017 50006





000
SAUS46 KPDT 110254
MTRMEH
METAR KMEH 110256Z AUTO 00000KT 10SM SCT065 03/M02 A3032 RMK AO2
SLP290 T00281017 50006





000
SAUS46 KPDT 110254
MTRMEH
METAR KMEH 110256Z AUTO 00000KT 10SM SCT065 03/M02 A3032 RMK AO2
SLP290 T00281017 50006





000
SAUS46 KPDT 110201 COR
MTRMEH
METAR KMEH 110156Z AUTO 00000KT 10SM CLR 04/M02 A3033 RMK AO2 SLP290
T00391017





000
SAUS46 KPDT 110154
MTRMEH
METAR KMEH 110156Z AUTO 00000KT 10SM CLR 04/M02 A3033 RMK AO2 SLP290
T00391017





000
SAUS46 KPDT 110154
MTRMEH
METAR KMEH 110156Z AUTO 00000KT 10SM CLR 04/M02 A3033 RMK AO2 SLP290
T00391017





000
SAUS46 KPDT 110101 COR
MTRMEH
METAR KMEH 110056Z AUTO 00000KT 10SM SCT080 05/M01 A3031 RMK AO2
SLP283 T00501011





000
SAUS46 KPDT 110101 COR
MTRMEH
METAR KMEH 110056Z AUTO 00000KT 10SM SCT080 05/M01 A3031 RMK AO2
SLP283 T00501011





000
SAUS46 KPDT 110059
MTRMEH
METAR KMEH 110056Z AUTO 00000KT 10SM SCT080 05/M0
NO CARRIER

RING

CONNECT 1200

LAXRRYNKX ALL
TTAA00 KNKX 110100
.A KNKX 0211 DH0100/PPH 0.00





000
SAUS46 KPDT 110059
MTRMEH
METAR KMEH 110056Z AUTO 00000KT 10SM SCT080 05/M0
NO CARRIER

RING

CONNECT 1200

LAXRRYNKX ALL
TTAA00 KNKX 110100
.A KNKX 0211 DH0100/PPH 0.00





000
SAUS46 KPDT 110001 COR
MTRMEH
METAR KMEH 102356Z AUTO 00000KT 10SM SCT090 BKN110 07/M01 A3030 RMK
AO2 SLP276 T00671011 10106 20061 51012





000
SAUS46 KPDT 110001 COR
MTRMEH
METAR KMEH 102356Z AUTO 00000KT 10SM SCT090 BKN110 07/M01 A3030 RMK
AO2 SLP276 T00671011 10106 20061 51012





000
SAUS46 KPDT 102354
MTRMEH
METAR KMEH 102356Z AUTO 00000KT 10SM SCT090 BKN110 07/M01 A3030 RMK
AO2 SLP276 T00671011 10106 20061 51012





000
SAUS46 KPDT 102354
MTRMEH
METAR KMEH 102356Z AUTO 00000KT 10SM SCT090 BKN110 07/M01 A3030 RMK
AO2 SLP276 T00671011 10106 20061 51012





000
SAUS46 KPDT 102301 COR
MTRMEH
METAR KMEH 102256Z AUTO 00000KT 10SM BKN110 09/M01 A3030 RMK AO2
SLP271 T00891011





000
SAUS46 KPDT 102301 COR
MTRMEH
METAR KMEH 102256Z AUTO 00000KT 10SM BKN110 09/M01 A3030 RMK AO2
SLP271 T00891011





000
SAUS46 KPDT 102254
MTRMEH
METAR KMEH 102256Z AUTO 00000KT 10SM BKN110 09/M01 A3030 RMK AO2
SLP271 T00891011





000
SAUS46 KPDT 102254
MTRMEH
METAR KMEH 102256Z AUTO 00000KT 10SM BKN110 09/M01 A3030 RMK AO2
SLP271 T00891011





000
SAUS46 KPDT 102201 COR
MTRMEH
METAR KMEH 102156Z AUTO 00000KT 10SM SCT110 09/M02 A3027 RMK AO2
SLP263 T00891017





000
SAUS46 KPDT 102154
MTRMEH
METAR KMEH 102156Z AUTO 00000KT 10SM SCT110 09/M02 A3027 RMK AO2
SLP263 T00891017





000
SAUS46 KPDT 102101 COR
MTRMEH
METAR KMEH 102056Z AUTO 00000KT 10SM FEW120 09/M02 A3026 RMK AO2
SLP257 T00941017 58006





000
SAUS46 KPDT 102054
MTRMEH
METAR KMEH 102056Z AUTO 00000KT 10SM FEW120 09/M02 A3026 RMK AO2
SLP257 T00941017 58006





000
SAUS46 KPDT 102054
MTRMEH
METAR KMEH 102056Z AUTO 00000KT 10SM FEW120 09/M02 A3026 RMK AO2
SLP257 T00941017 58006





000
SAUS46 KPDT 102050
MTRMEH
METAR KMEH 101956Z AUTO 00000KT 10SM CLR 08/M02 A30
NO CARRIER

RING

NO CARRIER

RING

CONNECT 1200






000
SAUS46 KPDT 102001 COR
MTRMEH
METAR KMEH 101956Z AUTO 00000KT 10SM CLR 08/M02 A3027 RMK AO2 SLP264
T00781017





000
SAUS46 KPDT 101901 COR
MTRMEH
METAR KMEH 101856Z AUTO 00000KT 10SM FEW110 07/M01 A3029 RMK AO2
SLP269 T00721011





000
SAUS46 KPDT 101854
MTRMEH
METAR KMEH 101856Z AUTO 00000KT 10SM FEW110 07/M01 A3029 RMK AO2
SLP269 T00721011





000
SAUS46 KPDT 101854
MTRMEH
METAR KMEH 101856Z AUTO 00000KT 10SM FEW110 07/M01 A3029 RMK AO2
SLP269 T00721011





000
SAUS46 KPDT 101801 COR
MTRMEH
METAR KMEH 101756Z AUTO 00000KT 10SM CLR 06/M02 A3028 RMK AO2 SLP269
T00611017 10061 20000 53011





000
SAUS46 KPDT 101801 COR
MTRMEH
METAR KMEH 101756Z AUTO 00000KT 10SM CLR 06/M02 A3028 RMK AO2 SLP269
T00611017 10061 20000 53011





000
SAUS46 KPDT 101754
MTRMEH
METAR KMEH 101756Z AUTO 00000KT 10SM CLR 06/M02 A3028 RMK AO2 SLP269
T00611017 10061 20000 53011





000
SAUS46 KPDT 101754
MTRMEH
METAR KMEH 101756Z AUTO 00000KT 10SM CLR 06/M02 A3028 RMK AO2 SLP269
T00611017 10061 20000 53011





000
SAUS46 KPDT 101701 COR
MTRMEH
METAR KMEH 101656Z AUTO VRB03KT 10SM CLR 03/M02 A3026 RMK AO2 SLP263
T00331017





000
SAUS46 KPDT 101701 COR
MTRMEH
METAR KMEH 101656Z AUTO VRB03KT 10SM CLR 03/M02 A3026 RMK AO2 SLP263
T00331017





000
SAUS46 KPDT 101654
MTRMEH
METAR KMEH 101656Z AUTO VRB03KT 10SM CLR 03/M02 A3026 RMK AO2 SLP263
T00331017





000
SAUS46 KPDT 101654
MTRMEH
METAR KMEH 101656Z AUTO VRB03KT 10SM CLR 03/M02 A3026 RMK AO2 SLP263
T00331017





000
SAUS46 KPDT 101554
MTRMEH
METAR KMEH 101556Z AUTO 00000KT 10SM CLR 02/M02 A3026 RMK AO2 SLP264
T00221022





000
SAUS46 KPDT 101501 COR
MTRMEH
METAR KMEH 101456Z AUTO 00000KT 10SM CLR 01/M03 A3025 RMK AO2 SLP260
T00061028 55001





000
SAUS46 KPDT 101454
MTRMEH
METAR KMEH 101456Z AUTO 00000KT 10SM CLR 01/M03 A3025 RMK AO2 SLP260
T00061028 55001





000
SAUS46 KPDT 101401 COR
MTRMEH
METAR KMEH 101356Z AUTO 00000KT 10SM CLR 01/M03 A3023 RMK AO2 SLP256
T00061028





000
SAUS46 KPDT 101356
MTRMEH
METAR KMEH 101356Z AUTO 00000KT 10SM CLR 01/M03 A3023 RMK
NO CARRIER

RING

CONNECT 1200

PHXMTRNYL ALL
TTAA00 KNYL 101357
METAR KNYL 101357Z 00000KT 10SM CLR 14/M03 A3016 RMK AO2 SLPNO
T01391028 $





000
SAUS46 KPDT 101301 COR
MTRMEH
METAR KMEH 101256Z AUTO 00000KT 10SM CLR 01/M03 A3024 RMK AO2 SLP256
T00061028





000
SAUS46 KPDT 101301 COR
MTRMEH
METAR KMEH 101256Z AUTO 00000KT 10SM CLR 01/M03 A3024 RMK AO2 SLP256
T00061028





000
SAUS46 KPDT 101254
MTRMEH
METAR KMEH 101256Z AUTO 00000KT 10SM CLR 01/M03 A3024 RMK AO2 SLP256
T00061028





000
SAUS46 KPDT 101254
MTRMEH
METAR KMEH 101256Z AUTO 00000KT 10SM CLR 01/M03 A3024 RMK AO2 SLP256
T00061028





000
SAUS46 KPDT 101201 COR
MTRMEH
METAR KMEH 101156Z AUTO 00000KT 10SM CLR 01/M03 A3025 RMK AO2 SLP258
T00061028 10028 20006 58002





000
SAUS46 KPDT 101201 COR
MTRMEH
METAR KMEH 101156Z AUTO 00000KT 10SM CLR 01/M03 A3025 RMK AO2 SLP258
T00061028 10028 20006 58002





000
SAUS46 KPDT 101154
MTRMEH
METAR KMEH 101156Z AUTO 00000KT 10SM CLR 01/M03 A3025 RMK AO2 SLP258
T00061028 10028 20006 58002





000
SAUS46 KPDT 101154
MTRMEH
METAR KMEH 101156Z AUTO 00000KT 10SM CLR 01/M03 A3025 RMK AO2 SLP258
T00061028 10028 20006 58002





000
SAUS46 KPDT 101101 COR
MTRMEH
METAR KMEH 101056Z AUTO 00000KT 10SM CLR 02/M03 A3026 RMK AO2 SLP256
T00221028





000
SAUS46 KPDT 101101 COR
MTRMEH
METAR KMEH 101056Z AUTO 00000KT 10SM CLR 02/M03 A3026 RMK AO2 SLP256
T00221028





000
SAUS46 KPDT 101058
MTRMEH
METAR KMEH 101056Z AUTO 00000KT 10SM CLR 02/M03 A3026 RMK AO2 SLP256
NO CARRIER

RING

CONNECT 1200

LAXRRYNKX ALL
TTAA00 KNKX 101100
.A KNKX 0210 DH1100/PPH 0.00





000
SAUS46 KPDT 101058
MTRMEH
METAR KMEH 101056Z AUTO 00000KT 10SM CLR 02/M03 A3026 RMK AO2 SLP256
NO CARRIER

RING

CONNECT 1200

LAXRRYNKX ALL
TTAA00 KNKX 101100
.A KNKX 0210 DH1100/PPH 0.00





000
SAUS46 KPDT 101001 COR
MTRMEH
METAR KMEH 100956Z AUTO 00000KT 10SM CLR 02/M02 A3026 RMK AO2 SLP257
T00221022





000
SAUS46 KPDT 100954
MTRMEH
METAR KMEH 100956Z AUTO 00000KT 10SM CLR 02/M02 A3026 RMK AO2 SLP257
T00221022





000
SAUS46 KPDT 100901 COR
MTRMEH
METAR KMEH 100856Z AUTO 00000KT 10SM CLR 02/M02 A3025 RMK AO2 SLP256
T00221022 58007





000
SAUS46 KPDT 100854
MTRMEH
METAR KMEH 100856Z AUTO 00000KT 10SM CLR 02/M02 A3025 RMK AO2 SLP256
T00221022 58007





000
SAUS46 KPDT 100854
MTRMEH
METAR KMEH 100856Z AUTO 00000KT 10SM CLR 02/M02 A3025 RMK AO2 SLP256
T00221022 58007





000
SAUS46 KPDT 100801 COR
MTRMEH
METAR KMEH 100756Z AUTO 00000KT 10SM CLR 02/M03 A3026 RMK AO2 SLP260
T00221028 400940006





000
SAUS46 KPDT 100754
MTRMEH
METAR KMEH 100756Z AUTO 00000KT 10SM CLR 02/M03 A3026 RMK AO2 SLP260
T00221028 400940006





000
SAUS46 KPDT 100655
MTRMEH
METAR KMEH 100656Z AUTO 00000KT 10SM CLR 03/M02 A3027 RMK AO2 SLP265
T00281022





000
SAUS46 KPDT 100655
MTRMEH
METAR KMEH 100656Z AUTO 00000KT 10SM CLR 03/M02 A3027 RMK AO2 SLP265
T00281022





000
SAUS46 KPDT 100555
MTRMEH
METAR KMEH 100556Z AUTO 00000KT 10SM CLR 03/M02 A3028 RMK AO2 SLP268
T00281022 10078 20028 55000





000
SAUS46 KPDT 100555
MTRMEH
METAR KMEH 100556Z AUTO 00000KT 10SM CLR 03/M02 A3028 RMK AO2 SLP268
T00281022 10078 20028 55000





000
SAUS46 KPDT 100455
MTRMEH
METAR KMEH 100456Z AUTO 00000KT 10SM CLR 04/M02 A3026 RMK AO2 SLP265
T00391017





000
SAUS46 KPDT 100455
MTRMEH
METAR KMEH 100456Z AUTO 00000KT 10SM CLR 04/M02 A3026 RMK AO2 SLP265
T00391017





000
SAUS46 KPDT 100354
MTRMEH
METAR KMEH 100356Z AUTO VRB03KT 10SM CLR 03/M02 A3027 RMK AO2 SLP270
T00331017





000
SAUS46 KPDT 100301 COR
MTRMEH
METAR KMEH 100256Z AUTO 00000KT 10SM CLR 05/M02 A3028 RMK AO2 SLP270
T00501017 51009





000
SAUS46 KPDT 100301 COR
MTRMEH
METAR KMEH 100256Z AUTO 00000KT 10SM CLR 05/M02 A3028 RMK AO2 SLP270
T00501017 51009





000
SAUS46 KPDT 100201 COR
MTRMEH
METAR KMEH 100156Z AUTO VRB03KT 10SM CLR 05/M02 A3027 RMK AO2 SLP268
T00501017





000
SAUS46 KPDT 100201 COR
MTRMEH
METAR KMEH 100156Z AUTO VRB03KT 10SM CLR 05/M02 A3027 RMK AO2 SLP268
T00501017





000
SAUS46 KPDT 100154
MTRMEH
METAR KMEH 100156Z AUTO VRB03KT 10SM CLR 05/M02 A3027 RMK AO2 SLP268
T00501017





000
SAUS46 KPDT 100101 COR
MTRMEH
METAR KMEH 100056Z AUTO 00000KT 10SM CLR 06/M02 A3026 RMK AO2 SLP261
T00611017





000
SAUS46 KPDT 100101 COR
MTRMEH
METAR KMEH 100056Z AUTO 00000KT 10SM CLR 06/M02 A3026 RMK AO2 SLP261
T00611017





000
SAUS46 KPDT 100054
MTRMEH
METAR KMEH 100056Z AUTO 00000KT 10SM CLR 06/M02 A3026 RMK AO2 SLP261
T00611017





000
SAUS46 KPDT 100054
MTRMEH
METAR KMEH 100056Z AUTO 00000KT 10SM CLR 06/M02 A3026 RMK AO2 SLP261
T00611017





000
SAUS46 KPDT 092355 COR
MTRMEH
METAR KMEH 092356Z AUTO VRB03KT 10SM CLR 08/M02 A3025 RMK AO2 SLP256
T00781017 10094 20050 56017





000
SAUS46 KPDT 092355 COR
MTRMEH
METAR KMEH 092356Z AUTO VRB03KT 10SM CLR 08/M02 A3025 RMK AO2 SLP256
T00781017 10094 20050 56017





000
SAUS46 KPDT 092301 COR
MTRMEH
METAR KMEH 092256Z AUTO 00000KT 10SM CLR 09/M01 A3027 RMK AO2 SLP260
T00891011





000
SAUS46 KPDT 092301 COR
MTRMEH
METAR KMEH 092256Z AUTO 00000KT 10SM CLR 09/M01 A3027 RMK AO2 SLP260
T00891011





000
SAUS46 KPDT 092258
MTRMEH
METAR KMEH 092256Z AUTO 00000KT 10SM CLR 09/M01 A302
NO CARRIER

RING

CONNECT 1200

LAXRRYNKX ALL
TTAA00 KNKX 092300
.A KNKX 0209 DH2300/PPH 0.00





000
SAUS46 KPDT 092258
MTRMEH
METAR KMEH 092256Z AUTO 00000KT 10SM CLR 09/M01 A302
NO CARRIER

RING

CONNECT 1200

LAXRRYNKX ALL
TTAA00 KNKX 092300
.A KNKX 0209 DH2300/PPH 0.00





000
SAUS46 KPDT 092201 COR
MTRMEH
METAR KMEH 092156Z AUTO 00000KT 10SM CLR 09/M01 A3028 RMK AO2 SLP262
T00891006





000
SAUS46 KPDT 092158
MTRMEH
METAR KMEH 092156Z AUTO 00000KT 10SM CL
NO CARRIER

RING

CONNECT 1200

LAXRRYNKX ALL
TTAA00 KNKX 092200
.A KNKX 0209 DH2200/PPH 0.00





000
SAUS46 KPDT 092101 COR
MTRMEH
METAR KMEH 092056Z AUTO 00000KT 10SM CLR 08/M01 A3030 RMK AO2 SLP272
T00831011 58024





000
SAUS46 KPDT 092054
MTRMEH
METAR KMEH 092056Z AUTO 00000KT 10SM CLR 08/M01 A3030 RMK AO2 SLP272
T00831011 58024





000
SAUS46 KPDT 092001 COR
MTRMEH
METAR KMEH 091956Z AUTO 00000KT 10SM CLR 08/M01 A3033 RMK AO2 SLP281
T00831006





000
SAUS46 KPDT 091954
MTRMEH
METAR KMEH 091956Z AUTO 00000KT 10SM CLR 08/M01 A3033 RMK AO2 SLP281
T00831006





000
SAUS46 KPDT 091954
MTRMEH
METAR KMEH 091956Z AUTO 00000KT 10SM CLR 08/M01 A3033 RMK AO2 SLP281
T00831006





000
SAUS46 KPDT 091901 COR
MTRMEH
METAR KMEH 091856Z AUTO 00000KT 10SM CLR 06/M01 A3037 RMK AO2 SLP298
T00611011





000
SAUS46 KPDT 091901 COR
MTRMEH
METAR KMEH 091856Z AUTO 00000KT 10SM CLR 06/M01 A3037 RMK AO2 SLP298
T00611011





000
SAUS46 KPDT 091854
MTRMEH
METAR KMEH 091856Z AUTO 00000KT 10SM CLR 06/M01 A3037 RMK AO2 SLP298
T00611011





000
SAUS46 KPDT 091854
MTRMEH
METAR KMEH 091856Z AUTO 00000KT 10SM CLR 06/M01 A3037 RMK AO2 SLP298
T00611011





000
SAUS46 KPDT 091801 COR
MTRMEH
METAR KMEH 091756Z AUTO 00000KT 10SM CLR 05/M01 A3038 RMK AO2 SLP304
T00501011 10050 20006 58007





000
SAUS46 KPDT 091801 COR
MTRMEH
METAR KMEH 091756Z AUTO 00000KT 10SM CLR 05/M01 A3038 RMK AO2 SLP304
T00501011 10050 20006 58007





000
SAUS46 KPDT 091701 COR
MTRMEH
METAR KMEH 091656Z AUTO 00000KT 10SM CLR 02/M02 A3039 RMK AO2 SLP311
T00221017





000
SAUS46 KPDT 091701 COR
MTRMEH
METAR KMEH 091656Z AUTO 00000KT 10SM CLR 02/M02 A3039 RMK AO2 SLP311
T00221017





000
SAUS46 KPDT 091601 COR
MTRMEH
METAR KMEH 091556Z AUTO VRB03KT 10SM CLR 01/M03 A3040 RMK AO2 SLP316
T00111028





000
SAUS46 KPDT 091554
MTRMEH
METAR KMEH 091556Z AUTO VRB03KT 10SM CLR 01/M03 A3040 RMK AO2 SLP316
T00111028





000
SAUS46 KPDT 091501 COR
MTRMEH
METAR KMEH 091456Z AUTO 00000KT 10SM CLR 01/M03 A3041 RMK AO2 SLP318
T00111028 58005





000
SAUS46 KPDT 091501 COR
MTRMEH
METAR KMEH 091456Z AUTO 00000KT 10SM CLR 01/M03 A3041 RMK AO2 SLP318
T00111028 58005





000
SAUS46 KPDT 091400
MTRMEH
METAR KMEH 091356Z AUTO 00000KT 10SM CLR 01/M03 A3041 RMK AO2 SLP318
T00111028





000
SAUS46 KPDT 091400
MTRMEH
METAR KMEH 091356Z AUTO 00000KT 10SM CLR 01/M03 A3041 RMK AO2 SLP318
T00111028





000
SAUS46 KPDT 091300
MTRMEH
METAR KMEH 091256Z AUTO 00000KT 10SM CLR 02/M02 A3042 RMK AO2 SLP317
T00171022





000
SAUS46 KPDT 091300
MTRMEH
METAR KMEH 091256Z AUTO 00000KT 10SM CLR 02/M02 A3042 RMK AO2 SLP317
T00171022





000
SAUS46 KPDT 091200
MTRMEH
METAR KMEH 091156Z AUTO VRB03KT 10SM CLR 02/M02 A3042 RMK AO2 SLP315
T00171022 10033 20017 58011





000
SAUS46 KPDT 091200
MTRMEH
METAR KMEH 091156Z AUTO VRB03KT 10SM CLR 02/M02 A3042 RMK AO2 SLP315
T00171022 10033 20017 58011





000
SAUS46 KPDT 091100
MTRMEH
METAR KMEH 091056Z AUTO 00000KT 10SM CLR 02/M02 A3044 RMK AO2 SLP317
T00221022





000
SAUS46 KPDT 091100
MTRMEH
METAR KMEH 091056Z AUTO 00000KT 10SM CLR 02/M02 A3044 RMK AO2 SLP317
T00221022





000
SAUS46 KPDT 091000
MTRMEH
METAR KMEH 090956Z AUTO 00000KT 10SM CLR 03/M02 A3046 RMK AO2 SLP321
T00331017





000
SAUS46 KPDT 090900
MTRMEH
METAR KMEH 090856Z AUTO 00000KT 10SM CLR 03/M02 A3046 RMK AO2 SLP325
T00331017 56008





000
SAUS46 KPDT 090800
MTRMEH
METAR KMEH 090756Z AUTO 00000KT 10SM CLR 03/M01 A3047 RMK AO2 SLP330
T00281011 401111028





000
SAUS46 KPDT 090700
MTRMEH
METAR KMEH 090656Z AUTO 00000KT 10SM CLR 03/M01 A3048 RMK AO2 SLP333
T00281011





000
SAUS46 KPDT 090700
MTRMEH
METAR KMEH 090656Z AUTO 00000KT 10SM CLR 03/M01 A3048 RMK AO2 SLP333
T00281011





000
SAUS46 KPDT 090600
MTRMEH
METAR KMEH 090556Z AUTO 00000KT 10SM CLR 03/M01 A3049 RMK AO2 SLP340
T00331011 10094 20028 58002





000
SAUS46 KPDT 090500
MTRMEH
METAR KMEH 090456Z AUTO 00000KT 10SM CLR 03/M01 A3049 RMK AO2 SLP345
T00281011





000
SAUS46 KPDT 090400
MTRMEH
METAR KMEH 090356Z AUTO 00000KT 10SM CLR 03/M01 A3049 RMK AO2 SLP349
T00331011





000
SAUS46 KPDT 090400
MTRMEH
METAR KMEH 090356Z AUTO 00000KT 10SM CLR 03/M01 A3049 RMK AO2 SLP349
T00331011





000
SAUS46 KPDT 090300
MTRMEH
METAR KMEH 090256Z AUTO 00000KT 10SM CLR 03/M01 A3049 RMK AO2 SLP351
T00331011 58003





000
SAUS46 KPDT 090300
MTRMEH
METAR KMEH 090256Z AUTO 00000KT 10SM CLR 03/M01 A3049 RMK AO2 SLP351
T00331011 58003





000
SAUS46 KPDT 090200
MTRMEH
METAR KMEH 090156Z AUTO 00000KT 10SM CLR 05/M01 A3050 RMK AO2 SLP351
T00501006





000
SAUS46 KPDT 090100
MTRMEH
METAR KMEH 090056Z AUTO 00000KT 10SM CLR 07/M01 A3051 RMK AO2 SLP350
T00721006





000
SAUS46 KPDT 090100
MTRMEH
METAR KMEH 090056Z AUTO 00000KT 10SM CLR 07/M01 A3051 RMK AO2 SLP350
T00721006





000
SAUS46 KPDT 090000
MTRMEH
METAR KMEH 082356Z AUTO 00000KT 10SM CLR 09/00 A3050 RMK AO2 SLP349
T00890000 10111 20061 56007





000
SAUS46 KPDT 090000
MTRMEH
METAR KMEH 082356Z AUTO 00000KT 10SM CLR 09/00 A3050 RMK AO2 SLP349
T00890000 10111 20061 56007





000
SAUS46 KPDT 082300
MTRMEH
METAR KMEH 082256Z AUTO VRB03KT 10SM CLR 11/00 A3051 RMK AO2 SLP347
T01060000





000
SAUS46 KPDT 082300
MTRMEH
METAR KMEH 082256Z AUTO VRB03KT 10SM CLR 11/00 A3051 RMK AO2 SLP347
T01060000





000
SAUS46 KPDT 082200
MTRMEH
METAR KMEH 082156Z AUTO 10003KT 10SM CLR 11/00 A3051 RMK AO2 SLP344
T01110000





000
SAUS46 KPDT 082100
MTRMEH
METAR KMEH 082056Z AUTO 00000KT 10SM CLR 10/00 A3053 RMK AO2 SLP356
T01000000 58010





000
SAUS46 KPDT 082000
MTRMEH
METAR KMEH 081956Z AUTO 00000KT 10SM CLR 09/00 A3055 RMK AO2 SLP364
T00940000





000
SAUS46 KPDT 081854
MTRMEH
METAR KMEH 081856Z AUTO 00000KT 10SM CLR 08/00 A3056 RMK AO2 SLP370
T00780000





000
SAUS46 KPDT 081854
MTRMEH
METAR KMEH 081856Z AUTO 00000KT 10SM CLR 08/00 A3056 RMK AO2 SLP370
T00780000





000
SAUS46 KPDT 081800
MTRMEH
METAR KMEH 081756Z AUTO 00000KT 10SM CLR 06/01 A3056 RMK AO2 SLP372
I6001 T00560006 10056 21028 50000





000
SAUS46 KPDT 081654
MTRMEH
METAR KMEH 081656Z AUTO 00000KT 10SM CLR 03/M01 A3056 RMK AO2 SLP376
T00331006





000
SAUS46 KPDT 081600
MTRMEH
METAR KMEH 081556Z AUTO 00000KT 10SM CLR 00/M02 A3057 RMK AO2 SLP382
T00001022





000
SAUS46 KPDT 081455
MTRMEH
METAR KMEH 081456Z AUTO 00000KT 10SM CLR M01/M03 A3056 RMK AO2
SLP379 I1001 I3001 T10111033 51002





000
SAUS46 KPDT 081400
MTRMEH
METAR KMEH 081356Z AUTO 00000KT 10SM CLR M02/M04 A3056 RMK AO2
SLP379 I1000 T10221039





000
SAUS46 KPDT 081400
MTRMEH
METAR KMEH 081356Z AUTO 00000KT 10SM CLR M02/M04 A3056 RMK AO2
SLP379 I1000 T10221039





000
SAUS46 KPDT 081254
MTRMEH
METAR KMEH 081256Z AUTO 00000KT 10SM CLR M02/M03 A3056 RMK AO2
SLP373 I1000 T10171033





000
SAUS46 KPDT 081254
MTRMEH
METAR KMEH 081256Z AUTO 00000KT 10SM CLR M02/M03 A3056 RMK AO2
SLP373 I1000 T10171033





000
SAUS46 KPDT 081200
MTRMEH
METAR KMEH 081156Z AUTO 00000KT 10SM CLR M03/M04 A3055 RMK AO2
SLP368 I1000 I6001 T10281044 10000 21028 56006





000
SAUS46 KPDT 081055
MTRMEH
METAR KMEH 081056Z AUTO 00000KT 10SM CLR M02/M04 A3056 RMK AO2
SLP367 I1000 T10221039





000
SAUS46 KPDT 081055
MTRMEH
METAR KMEH 081056Z AUTO 00000KT 10SM CLR M02/M04 A3056 RMK AO2
SLP367 I1000 T10221039





    US Dept of Commerce
    National Oceanic and Atmospheric Administration
    National Weather Service
    1325 East West Highway
    Silver Spring, MD 20910
    Page Author: NWS Internet Services Team
Disclaimer
Information Quality
Credits
Glossary
Privacy Policy
Freedom of Information Act (FOIA)
About Us
Career Opportunities